E22FEY-1 Weather Reports


time (UTC)temp
F
wind
direction
speed
knots
gust
knots
rain 1hr
in
rain 24hr
in
rain mn
in
humidity
%
barometer
mb
20260505040350 101 0 0.0 0.0 0.00 0.00 0.00 39 1011.0
20260505034826 99 0 0.0 0.0 0.00 0.00 0.00 41 1011.0
20260505033301 98 0 0.0 0.0 0.00 0.00 0.00 40 1011.0
20260505031737 98 0 0.0 0.0 0.00 0.00 0.00 41 1011.0
20260505030213 98 0 0.0 0.0 0.00 0.00 0.00 41 1011.0
20260505024648 96 0 0.0 0.0 0.00 0.00 0.00 42 1011.0
20260505023123 97 0 0.0 0.0 0.00 0.00 0.00 43 1011.0
20260505021558 96 0 0.0 0.0 0.00 0.00 0.00 43 1011.0
20260505020033 94 0 0.0 0.0 0.00 0.00 0.00 45 1011.0
20260505014508 95 0 0.0 0.0 0.00 0.00 0.00 45 1011.0
20260505012944 92 0 0.0 0.0 0.00 0.00 0.00 48 1011.0
20260505011419 94 0 0.0 0.0 0.00 0.00 0.00 48 1011.0
20260505005855 97 0 0.0 0.0 0.00 0.00 0.00 44 1011.0
20260505004330 97 0 0.0 0.0 0.00 0.00 0.00 47 1010.0
20260505002752 90 0 0.0 0.0 0.00 0.00 0.00 57 1010.0
20260505002644 90 0 0.0 0.0 0.00 0.00 0.00 58 1010.0
20260505002529 89 0 0.0 0.0 0.00 0.00 0.00 59 1010.0
20260505002408 88 0 0.0 0.0 0.00 0.00 0.00 60 1010.0
20260505002205 88 0 0.0 0.0 0.00 0.00 0.00 60 1010.0
20260505002052 87 0 0.0 0.0 0.00 0.00 0.00 61 1010.0
20260505001859 87 0 0.0 0.0 0.00 0.00 0.00 61 1010.0
20260505001743 87 0 0.0 0.0 0.00 0.00 0.00 61 1010.0
20260505001625 87 0 0.0 0.0 0.00 0.00 0.00 61 1010.0
20260505001442 86 0 0.0 0.0 0.00 0.00 0.00 63 1010.0
20260505000606 84 0 0.0 0.0 0.00 0.00 0.00 66 1010.0
20260504235042 83 0 0.0 0.0 0.00 0.00 0.00 67 1010.0
20260504233518 83 0 0.0 0.0 0.00 0.00 0.00 68 1009.0
20260504231953 83 0 0.0 0.0 0.00 0.00 0.00 68 1009.0
20260504230429 82 0 0.0 0.0 0.00 0.00 0.00 68 1009.0
20260504224904 82 0 0.0 0.0 0.00 0.00 0.00 69 1009.0
20260504223340 82 0 0.0 0.0 0.00 0.00 0.00 68 1009.0
20260504221816 81 0 0.0 0.0 0.00 0.00 0.00 69 1009.0
20260504220252 80 0 0.0 0.0 0.00 0.00 0.00 71 1009.0
20260504214728 81 0 0.0 0.0 0.00 0.00 0.00 71 1009.0
20260504213204 81 0 0.0 0.0 0.00 0.00 0.00 72 1009.0
20260504211639 80 0 0.0 0.0 0.00 0.00 0.00 74 1009.0
20260504210113 81 0 0.0 0.0 0.00 0.00 0.00 73 1009.0
20260504204549 81 0 0.0 0.0 0.00 0.00 0.00 71 1009.0
20260504203025 80 0 0.0 0.0 0.00 0.00 0.00 72 1009.0
20260504201500 82 0 0.0 0.0 0.00 0.00 0.00 69 1009.0
20260504195936 83 0 0.0 0.0 0.00 0.00 0.00 68 1009.0
20260504194411 83 0 0.0 0.0 0.00 0.00 0.00 69 1009.0
20260504192847 83 0 0.0 0.0 0.00 0.00 0.00 68 1009.0
20260504191322 83 0 0.0 0.0 0.00 0.00 0.00 68 1009.0
20260504185758 83 0 0.0 0.0 0.00 0.00 0.00 70 1009.0
20260504184232 82 0 0.0 0.0 0.00 0.00 0.00 71 1010.0
20260504182708 80 0 0.0 0.0 0.00 0.00 0.00 73 1010.0
20260504181144 79 0 0.0 0.0 0.00 0.00 0.00 75 1010.0
20260504175620 80 0 0.0 0.0 0.00 0.00 0.00 75 1011.0
20260504174056 78 0 0.0 0.0 0.00 0.00 0.00 77 1011.0
20260504172532 80 0 0.0 0.0 0.00 0.00 0.00 78 1011.0
20260504171008 79 0 0.0 0.0 0.00 0.00 0.00 79 1011.0
20260504150654 89 0 0.0 0.0 0.00 0.00 0.00 61 1010.0
20260504140517 88 0 0.0 0.0 0.00 0.00 0.00 62 1009.0
20260504130340 88 0 0.0 0.0 0.00 0.00 0.00 64 1009.0
20260504120202 89 0 0.0 0.0 0.00 0.00 0.00 61 1007.0
20260504081059 103 0 0.0 0.0 0.00 0.00 0.00 39 1006.0
20260504050608 101 0 0.0 0.0 0.00 0.00 0.00 44 1009.0